Location: *
(51.0333°S, 178.4667°E)
Time: 08:06:09
(UTC+00:00)

CZ-4 R/B - Pass Details

Date: 15 November 2019
Orbit: 681 x 753 km, 98.5° (Epoch: 11 December)

Event Time Altitude Azimuth Distance (km) Brightness Sun altitude
Exits shadow 10:50:32 38° 28° (NNE) 1,154 4.4 -19.3°
Maximum altitude 10:52:31 78° 107° (ESE) 784 4.0 -19.3°
Drops below altitude 10° 10:57:39 10° 193° (SSW) 2,319 7.7 -19.5°
Sets 10:59:58 0° 193° (SSW) 3,251 8.9 -19.6°
